Flag for USA

Past Weather in 41°56'58"N, 87°40'32"W, USA — Yesterday and Last 2 Weeks

Now
43 °F

Overcast.


Feels Like: 36 °F
Forecast: 44 / 38 °F
Wind: 15 mph from North

Location: Chicago Midway Airport
Current Time: Oct 23, 2020 at 11:28:44 pm
Latest Report: Oct 23, 2020 at 10:53 pm
Visibility: 10 mi
Pressure30.24 "Hg
Humidity: 56%
Dew Point: 28 °F
Location of 41°56'58"N, 87°40'32"WLocation

Past Weather in 41°56'58"N, 87°40'32"W — Graph

°F

41°56'58"N, 87°40'32"W Temperature Yesterday

Maximum temperature yesterday: 79 °F (at 4:53 pm)
Minimum temperature yesterday: 48 °F (at 2:53 am)
Average temperature yesterday: 58 °F

High & Low Weather Summary for the Past Weeks

 TemperatureHumidityPressure
High81 °F (Oct 9, 4:53 pm)93% (Oct 20, 9:36 pm)30.29 "Hg (Oct 20, 9:36 pm)
Low37 °F (Oct 16, 4:53 am)23% (Oct 14, 3:53 pm)29.49 "Hg (Oct 14, 4:53 pm)
Average55 °F65%30.00 "Hg
* Reported Oct 8 10:53 pm — Oct 23 10:14 pm, 41°56'58"N, 87°40'32"W. Weather by CustomWeather, © 2020

Note: Actual official high and low records may vary slightly from our data, if they occured in-between our weather recording intervals... More about our weather records

41°56'58"N, 87°40'32"W Weather History for the Previous 24 Hours

Scroll right to see more
 ConditionsComfort  
Time TempWeatherWind HumidityBarometerVisibility
10:14 pm
Fri, Oct 23
43 °FMostly cloudy.13 mph58%30.23 "Hg10 mi
9:53 pm43 °FMostly cloudy.16 mph65%30.23 "Hg10 mi
8:53 pm44 °FMostly cloudy.15 mph65%30.19 "Hg10 mi
7:53 pm45 °FMostly cloudy.14 mph68%30.18 "Hg10 mi
6:53 pm45 °FOvercast.21 mph68%30.15 "Hg10 mi
5:53 pm45 °FOvercast.15 mph76%30.09 "Hg10 mi
4:53 pm45 °FOvercast.16 mph80%30.05 "Hg10 mi
3:53 pm45 °FOvercast.18 mph82%30.03 "Hg10 mi
3:23 pm45 °FMostly cloudy.13 mph86%30.02 "Hg9 mi
2:53 pm45 °FLight rain. Mostly cloudy.14 mph86%30.00 "Hg7 mi
1:53 pm45 °FLight rain. Fog.13 mph86%29.99 "Hg4 mi
12:53 pm47 °FLight rain. Low clouds.10 mph90%29.95 "Hg7 mi
11:53 am50 °FLight rain. Low clouds.12 mph89%29.93 "Hg7 mi
10:53 am52 °FLight rain. Fog.8 mph89%29.90 "Hg5 mi
9:53 am55 °FLight rain. Fog.8 mph90%29.88 "Hg6 mi
9:32 am58 °FLight rain. Fog.12 mph90%29.87 "Hg6 mi
9:09 am64 °FLight rain. More clouds than sun.7 mph90%29.85 "Hg10 mi
8:34 am66 °FThunderstorms. Fog.8 mph87%29.84 "Hg3 mi
7:53 am67 °FOvercast.13 mph81%29.80 "Hg10 mi
7:11 am68 °FMostly cloudy.13 mph78%29.82 "Hg10 mi
6:53 am68 °FMostly cloudy.12 mph78%29.80 "Hg10 mi
5:53 am68 °FPartly cloudy.12 mph78%29.80 "Hg10 mi
4:53 am68 °FPassing clouds.13 mph78%29.80 "Hg10 mi
3:53 am69 °FPassing clouds.14 mph76%29.80 "Hg10 mi
2:53 am69 °FPassing clouds.13 mph73%29.81 "Hg10 mi
1:53 am69 °FPassing clouds.17 mph73%29.83 "Hg10 mi
12:53 am70 °FPassing clouds.14 mph71%29.85 "Hg10 mi
11:53 pm
Thu, Oct 22
71 °FPassing clouds.16 mph68%29.85 "Hg10 mi
Weather by CustomWeather, © 2020

See weather overview